Theta_e
346 346 344 342 342 343 341 343 342 342 342 341 341 341 341 341 341 340 341 340 340 340 340 339 339 339 338 338 338 338 338 337 338 337 335 333 333 336 337 338 339 339 339 339 338 338 336 335 336 337 337 338 337 335 335 335 336 337 336 336 335 334 334 336 337 337 337 337 338 338 338 337 336 337 336 337 336 334 336 336 337 336 337 338 338
347 345 345 342 342 343 342 342 341 343 342 341 341 341 341 340 341 340 340 340 340 340 340 340 340 339 338 338 337 337 337 338 337 336 334 333 333 335 337 338 339 339 338 337 337 336 336 336 336 337 337 337 338 337 337 336 338 338 337 336 334 334 334 336 337 337 338 338 337 337 337 335 335 337 337 338 337 335 335 335 337 337 337 337 338
346 345 345 342 342 343 343 342 342 343 341 341 340 340 341 340 340 339 340 339 339 339 340 339 339 340 339 338 337 336 337 337 334 333 332 334 335 336 338 338 339 338 338 336 336 337 337 338 337 338 338 338 338 337 337 338 338 338 337 336 336 335 334 334 335 337 338 338 336 336 337 335 335 336 337 337 337 334 334 335 336 337 337 337 338
345 345 344 342 341 342 343 343 343 343 341 340 340 340 340 339 339 338 338 338 338 339 339 339 339 339 338 338 337 336 335 334 332 331 333 335 337 338 338 338 338 338 338 337 336 337 337 338 338 338 339 339 338 338 337 338 338 338 338 337 336 334 333 334 335 336 337 337 336 336 337 337 335 335 336 337 336 335 335 335 334 335 336 336 337
345 344 343 343 342 343 342 342 342 342 340 340 340 339 338 338 338 338 338 337 338 338 338 338 338 338 338 338 336 335 334 335 335 335 337 338 339 338 338 338 338 338 338 338 337 337 337 338 338 338 339 339 339 339 338 338 338 337 337 337 335 333 332 334 336 337 336 336 335 336 339 338 336 336 336 337 337 337 335 334 333 335 335 336 336
345 344 344 345 344 342 341 342 342 342 341 340 339 339 338 339 338 337 336 337 338 337 338 338 338 338 338 338 337 337 336 336 336 338 338 338 338 338 338 338 338 337 337 337 337 338 338 339 339 338 338 338 339 338 338 338 337 336 336 335 334 332 332 334 336 337 337 336 334 335 338 338 337 337 337 337 337 336 334 334 333 334 335 335 335
345 345 345 346 345 342 341 342 342 342 341 340 339 339 339 338 338 337 336 338 338 338 338 338 338 338 338 338 338 337 337 336 338 339 338 338 338 338 338 337 337 337 336 337 338 338 337 338 338 338 338 338 339 338 337 338 337 336 336 336 334 332 332 333 335 336 337 336 334 334 336 337 337 337 336 336 336 334 333 334 335 335 335 335 335
344 345 346 345 344 342 342 342 342 341 340 340 340 339 339 338 337 337 336 337 337 337 338 338 338 338 338 338 338 337 337 337 338 338 337 338 337 338 337 337 337 336 337 337 338 337 336 338 338 338 339 338 338 336 337 337 336 336 336 334 333 332 331 333 336 335 336 336 335 334 335 336 336 336 335 334 334 333 333 334 335 335 334 335 336
343 343 344 345 343 342 342 342 342 341 340 340 339 339 338 338 337 336 336 337 337 338 338 338 338 337 337 338 338 337 337 336 337 337 337 338 337 338 337 337 336 337 338 338 337 337 337 338 338 338 338 338 336 336 336 337 336 336 335 333 332 331 331 335 336 334 335 335 333 335 335 334 334 335 336 334 334 334 334 334 335 335 335 335 335
343 342 343 344 342 341 342 341 341 340 340 339 339 339 338 337 337 336 336 337 337 337 338 338 338 337 337 338 337 337 338 337 336 336 336 337 337 337 337 337 337 338 338 338 337 337 338 338 338 337 337 337 337 336 336 336 336 335 333 332 331 331 334 335 335 333 335 335 334 335 335 334 334 335 335 335 334 335 335 335 335 335 335 335 334
342 341 343 344 341 340 341 340 340 340 340 340 339 340 339 337 337 337 337 337 337 337 337 335 334 334 335 335 335 335 335 334 333 334 334 335 335 336 337 337 337 338 337 337 337 337 337 337 338 337 337 337 337 336 335 335 334 333 331 331 331 332 335 335 334 334 335 336 336 336 335 335 335 334 334 335 335 335 335 335 335 335 335 335 335
342 341 342 343 340 339 340 340 340 339 340 340 339 339 339 337 337 337 337 336 334 332 329 327 325 325 327 328 329 329 329 329 329 329 330 331 333 334 335 336 336 337 336 337 337 337 337 336 336 336 337 337 337 336 335 333 332 331 331 331 332 334 335 333 332 332 334 336 336 336 335 335 335 334 334 334 334 334 334 334 335 335 335 334 334
341 341 342 342 340 339 339 339 340 340 339 339 339 338 338 337 337 336 334 331 327 324 322 321 320 320 321 322 323 324 324 325 325 326 328 329 330 331 333 334 335 335 336 336 336 336 336 335 336 336 336 336 336 335 334 333 332 333 332 333 334 335 335 333 331 332 335 336 337 336 334 334 335 334 334 333 334 334 334 334 334 334 334 334 333
341 341 342 342 340 339 339 339 340 340 339 339 337 336 337 336 333 330 326 323 322 322 322 323 323 323 322 322 322 321 322 322 323 324 325 327 329 330 332 333 334 334 334 335 335 335 335 336 336 336 336 335 334 333 332 332 332 333 333 333 334 335 334 332 331 333 335 335 336 335 333 333 333 335 334 334 333 334 334 334 334 334 334 333 333
341 342 343 342 341 340 340 339 339 339 338 337 337 336 335 331 325 322 322 322 323 324 324 324 324 324 324 323 323 323 323 322 322 321 322 325 328 330 332 333 333 333 333 333 333 334 335 336 336 336 335 334 333 331 330 331 332 333 333 334 334 334 333 332 331 333 335 334 334 334 333 333 333 334 334 334 334 334 334 333 333 333 333 333 333
341 342 343 342 341 340 340 339 338 338 337 336 336 335 331 324 321 321 323 324 324 324 324 324 324 323 322 321 321 322 323 323 323 322 321 322 325 329 331 333 333 332 331 332 332 334 335 336 336 336 335 335 333 331 331 331 331 332 332 334 334 333 332 331 330 332 333 333 333 334 334 333 333 334 333 333 333 333 333 333 333 333 333 333 333
341 343 343 342 341 340 340 339 338 337 336 335 335 331 324 320 322 324 324 325 324 324 324 323 321 321 319 318 318 318 318 319 320 321 321 321 322 326 330 332 332 331 330 330 331 334 335 335 335 335 335 334 332 332 330 329 328 327 329 331 332 331 330 330 330 331 331 331 332 332 333 331 331 333 332 332 332 332 332 332 332 331 332 332 331
341 342 342 341 341 340 340 340 339 338 336 334 333 327 320 321 323 324 324 324 324 324 323 322 320 320 319 319 317 316 315 316 316 316 318 319 320 323 328 332 333 332 330 328 329 333 335 335 335 335 334 333 331 331 329 327 325 323 324 327 330 330 328 328 329 329 329 330 330 330 329 329 330 331 331 330 329 328 327 325 322 321 322 324 326
341 342 341 341 341 340 341 340 339 339 337 336 333 325 319 322 324 324 325 324 324 324 323 322 321 320 319 319 318 318 317 315 315 315 314 317 322 324 325 331 334 332 330 328 329 332 334 335 335 334 334 331 329 329 327 324 323 321 321 326 329 328 327 327 327 328 328 329 329 329 329 328 329 328 327 326 323 318 314 313 312 310 311 311 314
341 342 342 341 341 340 341 340 340 339 338 336 334 329 323 323 325 325 325 324 324 323 322 322 321 321 320 319 320 323 324 320 320 322 321 321 325 324 322 329 333 333 331 330 329 331 333 334 333 332 331 328 327 327 325 323 322 320 323 328 328 327 327 326 326 327 328 329 329 329 329 328 328 326 323 322 319 314 312 312 313 312 309 307 306
340 341 342 341 341 341 341 341 341 339 339 336 334 333 328 325 327 326 326 325 323 323 323 324 324 323 321 321 322 325 327 325 326 327 329 328 323 319 320 327 332 333 332 331 330 330 332 332 330 328 326 325 325 325 323 322 321 321 325 328 327 326 327 327 327 327 328 329 329 329 329 329 328 327 325 322 320 319 317 315 314 312 310 307 303
338 339 341 341 341 341 340 339 340 340 339 336 334 334 330 329 331 330 330 328 326 326 327 328 328 325 322 324 324 324 324 325 327 327 329 329 322 318 319 325 331 333 333 332 331 331 331 330 326 323 323 325 327 327 325 322 320 322 327 328 326 327 327 327 328 328 328 329 330 329 329 329 329 328 326 325 323 323 322 317 313 312 312 310 309
338 338 338 339 339 340 339 337 339 339 338 336 335 334 332 332 332 333 333 333 331 330 330 329 328 326 324 324 324 323 323 323 323 323 325 325 322 318 318 322 329 333 333 333 331 332 331 330 325 321 325 329 329 328 326 324 323 325 327 326 326 327 327 327 328 328 328 329 329 329 329 329 328 328 328 327 326 325 323 320 318 318 319 319 319
337 337 336 337 337 337 337 337 338 338 337 335 335 334 333 334 335 335 335 334 332 330 329 328 327 326 324 323 324 323 323 322 320 320 322 324 322 320 318 320 328 333 334 334 332 331 331 331 326 324 328 329 327 326 325 326 326 327 326 325 325 325 326 327 326 327 327 328 329 329 329 329 328 328 328 328 327 325 324 323 321 320 321 321 321
336 336 336 336 336 336 336 336 337 337 336 335 336 335 334 335 335 334 333 331 329 329 328 328 327 327 325 322 323 323 322 322 321 322 323 325 324 323 323 323 329 334 334 334 333 332 333 333 330 329 329 326 326 325 324 326 326 326 325 325 325 324 325 325 326 326 327 327 327 328 328 328 328 328 327 327 326 325 323 322 320 319 320 319 318
335 335 335 336 336 336 336 336 336 337 336 335 335 335 335 334 332 331 330 329 329 329 328 327 327 326 324 322 322 322 321 321 321 322 323 324 324 324 325 325 328 333 333 331 331 333 335 334 332 331 328 326 326 325 325 325 325 326 325 324 324 324 324 324 325 325 326 326 326 326 327 327 327 327 327 327 326 325 322 321 319 318 318 318 317
335 335 335 335 335 335 335 335 335 336 335 335 335 335 334 332 330 330 329 329 328 327 326 325 325 325 324 321 321 321 321 321 320 321 322 323 324 324 323 324 326 329 332 331 329 333 335 332 332 330 327 326 325 325 325 325 325 324 324 323 323 323 323 323 324 324 325 326 325 323 324 326 326 326 326 326 326 324 322 321 319 319 318 317 316
335 334 334 335 335 335 335 335 334 334 334 335 334 333 332 331 329 330 328 327 326 325 324 323 323 323 323 321 321 320 320 321 320 320 321 322 323 324 323 323 324 325 329 330 328 332 334 332 332 329 327 325 325 325 325 325 325 323 323 323 323 323 323 322 323 324 324 326 326 322 323 324 324 324 324 324 324 324 323 321 320 320 319 318 317
335 334 334 334 335 335 335 334 334 333 333 334 333 331 331 330 329 329 327 326 325 324 324 322 321 321 321 321 320 320 320 320 321 320 320 322 322 324 324 323 324 325 327 328 328 331 333 332 331 329 327 325 325 326 325 325 324 323 323 323 323 323 323 323 323 323 323 325 326 322 319 320 320 321 322 323 322 322 321 321 320 320 318 317 317
335 335 334 334 335 335 335 334 334 333 334 333 332 331 330 329 329 329 327 326 325 324 323 321 320 320 320 319 318 318 319 320 321 320 319 321 322 323 324 324 324 325 326 327 327 330 332 332 330 328 327 325 325 325 325 325 324 324 323 323 324 323 323 323 322 322 323 323 325 321 314 312 312 315 319 320 320 320 319 320 320 319 319 318 317
336 335 334 334 336 335 334 334 334 334 334 332 331 331 331 330 329 329 327 326 325 323 322 321 320 319 320 319 318 317 317 319 320 321 320 320 322 323 323 323 324 324 325 326 327 328 330 330 330 328 327 326 325 326 326 325 325 324 323 324 324 323 323 322 322 321 321 321 322 320 315 308 304 307 313 316 318 319 319 319 319 318 318 318 318
336 337 335 335 336 334 334 334 334 336 335 332 331 331 331 330 329 328 327 326 325 323 321 321 320 319 320 319 318 317 317 319 321 321 320 319 320 322 322 323 324 324 325 325 326 328 329 329 329 328 327 327 326 326 326 325 325 325 324 324 324 324 323 322 322 320 319 319 317 316 315 312 305 303 309 314 318 319 319 319 319 318 318 317 317
336 337 336 336 336 335 334 334 335 336 334 333 332 332 331 330 329 328 328 327 324 322 321 320 320 320 320 318 317 316 317 319 321 320 319 319 320 322 322 323 324 325 325 325 326 327 329 329 329 329 329 328 328 327 326 326 326 325 324 324 325 324 323 323 322 320 318 316 314 312 310 313 311 307 310 316 319 319 318 318 318 317 317 317 317
336 337 336 336 336 334 335 335 336 336 334 334 334 332 330 329 329 328 327 326 323 322 321 320 320 320 319 318 316 316 317 319 320 319 318 318 318 320 322 323 324 325 325 325 326 326 328 329 329 329 330 329 329 327 326 326 326 326 325 325 325 324 323 323 321 319 317 314 312 310 308 309 312 312 312 313 316 318 318 317 316 316 316 316 316
337 337 336 336 335 334 334 334 335 335 334 335 333 331 330 329 328 328 326 324 322 321 321 320 320 319 319 317 315 316 318 318 319 319 318 317 318 320 321 323 324 324 324 325 326 326 327 328 327 328 330 329 328 327 327 327 326 326 326 325 325 324 324 323 321 318 316 314 311 309 308 308 309 312 313 311 312 315 316 315 313 313 314 315 315
337 336 336 336 335 334 333 333 333 335 333 333 332 330 330 329 327 326 325 323 322 321 321 320 319 319 319 317 316 316 317 318 318 318 318 317 317 318 321 323 323 324 325 325 325 325 326 328 327 327 329 328 328 328 328 328 327 327 326 326 325 325 324 323 321 319 316 314 311 309 309 309 308 310 312 312 311 311 312 313 312 311 312 313 313
337 337 336 336 336 334 333 332 332 333 332 332 331 328 328 328 327 326 325 323 322 321 320 319 319 319 318 317 315 316 317 317 317 317 317 317 317 318 320 323 323 323 326 325 325 325 325 328 329 328 329 329 328 328 329 329 328 328 327 326 325 325 324 323 321 319 316 313 312 310 309 308 309 310 310 311 312 310 308 309 310 308 307 308 311
338 337 337 336 335 333 332 332 331 330 331 331 329 327 326 328 327 325 324 323 322 321 320 319 319 319 318 316 315 315 316 317 317 317 317 316 317 318 320 322 322 322 325 325 326 326 326 328 330 330 330 329 328 328 330 330 328 328 328 326 325 325 324 324 321 319 317 314 312 310 309 309 309 310 309 309 310 310 308 306 306 303 300 302 305
338 338 338 336 333 332 331 331 330 330 331 328 326 325 326 326 326 325 324 323 322 322 321 319 319 319 317 316 315 316 316 317 316 317 317 317 317 318 321 322 321 322 324 325 325 326 326 329 330 330 331 330 329 330 331 330 327 327 326 325 326 325 325 324 321 320 318 315 313 310 310 310 309 309 310 309 308 308 309 308 309 307 301 297 299
338 339 338 334 332 332 331 331 330 330 329 326 324 325 326 325 325 324 323 323 321 321 320 319 319 319 317 315 315 316 316 316 316 316 316 317 319 320 321 321 320 321 323 324 325 326 327 329 330 330 330 330 329 331 331 329 327 326 326 325 325 325 324 324 322 320 319 316 313 312 311 310 309 309 309 309 308 307 307 308 310 309 305 299 296
338 339 337 334 333 333 332 331 330 329 327 326 326 326 325 325 325 324 323 322 321 321 320 320 319 319 317 315 315 315 316 316 315 316 317 317 319 321 322 321 320 320 322 324 326 326 327 329 329 330 329 329 329 329 330 329 327 327 327 326 325 325 325 323 322 320 319 318 316 314 312 311 310 310 309 309 309 307 307 307 307 308 308 305 302
338 338 337 335 334 333 332 331 329 328 327 327 326 325 325 325 325 324 323 322 321 320 319 320 319 319 317 316 316 316 316 316 316 316 317 317 319 321 321 321 321 321 322 325 327 328 327 327 329 328 327 328 327 326 327 328 326 326 327 327 325 325 325 324 322 321 319 318 317 315 314 312 311 310 310 310 310 309 307 307 307 307 308 308 307
338 338 337 335 334 332 332 331 329 327 327 327 327 326 325 325 325 324 322 321 321 321 320 320 319 319 318 316 316 316 315 315 315 315 316 317 320 322 322 322 322 323 324 325 326 327 327 327 327 327 326 326 327 326 326 327 326 325 326 326 326 325 325 325 323 321 320 319 319 317 315 313 312 311 310 310 310 310 308 307 307 307 307 307 308
338 337 336 335 333 333 332 331 329 328 328 327 326 326 327 326 326 325 323 322 322 322 321 320 320 319 319 317 316 316 315 314 315 314 314 317 320 322 322 322 322 323 323 324 324 325 326 326 326 326 326 326 326 326 326 328 327 325 325 325 325 324 323 325 325 322 320 320 319 318 316 314 313 311 311 310 310 310 309 307 307 307 307 307 307
337 337 336 335 334 332 332 331 329 327 328 327 326 327 328 327 327 326 325 325 323 322 321 320 320 319 319 318 317 316 314 314 314 314 314 315 318 321 321 321 322 322 322 323 323 323 324 324 324 325 325 325 325 326 327 327 327 326 325 325 323 323 321 322 323 321 321 320 319 318 317 316 314 313 312 310 309 310 309 309 308 307 307 307 307
338 337 337 336 334 332 331 330 329 328 327 326 326 328 327 326 326 325 325 324 323 321 320 320 319 319 319 319 318 316 313 313 314 314 315 315 316 320 321 321 321 322 322 323 323 322 322 322 322 324 324 323 323 326 326 326 327 326 326 326 325 323 322 321 320 319 321 319 316 317 316 316 315 314 313 311 310 310 309 309 309 308 308 307 307
338 337 337 336 335 332 331 330 329 328 327 327 327 327 326 325 325 324 323 322 321 320 320 320 320 319 319 319 319 318 314 313 314 315 315 315 315 318 320 320 320 321 321 322 323 323 322 321 322 322 322 322 322 323 324 325 326 326 326 325 324 323 321 320 319 317 319 319 316 315 315 315 315 314 314 313 311 310 310 309 309 308 308 308 307
338 338 337 336 335 333 332 330 330 329 328 327 328 327 326 326 325 323 322 321 320 320 320 321 321 320 320 320 320 319 315 313 314 314 314 314 314 315 317 319 320 320 320 321 322 322 321 321 322 322 322 322 322 322 322 323 324 323 323 323 323 321 319 318 318 317 317 318 318 317 315 314 314 314 314 313 312 312 311 310 309 308 308 308 308
338 338 337 336 335 334 333 331 331 329 328 327 327 326 326 326 326 324 322 321 319 320 320 320 321 321 321 321 321 320 318 314 313 314 314 314 314 314 314 316 319 319 319 319 320 321 322 322 323 323 322 322 321 320 321 322 321 320 322 322 321 320 318 317 316 316 316 316 317 318 318 317 315 314 314 313 311 311 311 311 310 308 308 308 308
338 338 337 336 335 334 333 332 332 330 329 328 326 326 327 326 326 324 323 321 320 320 321 320 321 321 321 322 322 321 319 317 314 313 313 313 313 314 313 314 316 318 318 318 320 320 321 322 322 322 321 321 320 320 321 321 320 319 320 320 320 319 318 317 316 315 315 315 315 316 317 318 316 315 314 313 311 310 310 311 311 310 308 308 308
338 338 337 336 336 334 333 332 332 331 329 328 327 327 327 326 326 325 324 322 320 320 320 320 321 321 321 321 322 321 321 319 317 315 313 313 313 314 313 313 314 316 317 318 319 319 319 320 320 320 320 320 320 320 320 320 319 319 319 319 318 318 318 317 317 316 315 315 315 315 315 316 315 314 314 313 311 309 309 310 310 310 309 308 308
Wind_Speed
16 17 17 17 16 15 14 14 13 12 12 12 11 11 11 10 10 10 10 10 10 10 10 9 9 9 9 9 9 9 9 9 9 9 9 8 8 8 8 8 9 8 8 8 8 8 8 9 9 9 9 9 9 9 9 9 10 12 12 11 10 10 11 11 12 12 12 12 12 12 13 12 11 11 11 10 11 12 12 13 12 10 12 11 11
18 18 18 17 16 15 14 14 14 13 12 12 12 11 11 11 11 10 10 10 10 10 9 9 9 8 8 9 9 9 9 9 9 9 8 8 8 8 8 8 8 8 8 8 8 8 9 9 9 8 9 9 9 10 9 10 11 12 12 11 11 11 11 12 13 13 13 13 12 12 13 11 10 11 11 10 11 12 12 14 13 12 12 12 12
19 19 18 17 16 15 15 14 14 13 13 12 12 12 11 11 11 10 11 10 10 10 9 9 9 9 9 9 9 10 10 10 9 9 9 9 9 9 9 9 9 8 8 8 9 9 9 9 9 9 9 9 9 10 10 11 11 12 12 12 11 11 11 12 13 13 13 13 12 13 13 12 11 12 12 12 12 13 13 13 14 14 13 12 12
19 19 18 17 16 16 15 15 14 13 13 13 12 12 11 11 11 11 11 11 10 10 9 9 9 9 9 10 10 10 10 10 10 10 10 10 9 9 9 9 9 9 9 9 9 10 10 10 9 8 9 10 10 10 11 11 12 12 12 11 10 11 12 11 13 13 14 13 11 12 13 12 12 13 13 12 13 13 13 13 14 15 14 14 13
20 19 18 17 16 16 15 14 14 13 13 13 12 12 11 11 11 11 11 11 10 10 10 10 10 10 10 10 10 10 10 10 10 10 10 9 9 9 9 9 9 9 9 9 10 10 9 9 8 9 10 11 10 11 12 12 12 12 12 11 11 12 12 12 13 14 16 14 11 12 12 12 13 13 13 12 14 14 13 13 13 14 14 14 14
19 18 17 17 16 16 15 14 13 13 13 13 12 12 11 11 11 11 11 11 11 10 11 10 10 10 10 10 10 10 10 10 10 10 10 9 9 9 9 9 9 9 9 9 10 9 9 10 10 10 11 11 11 12 13 12 12 12 12 11 11 12 12 12 13 13 14 13 12 13 13 12 12 12 12 13 15 14 13 13 13 14 14 13 14
18 18 17 16 16 16 15 14 14 13 13 13 12 12 12 12 12 12 12 11 11 11 11 11 11 10 10 10 10 10 10 11 11 10 10 9 9 9 9 9 9 9 9 9 9 9 10 11 11 12 12 12 12 13 13 13 12 12 11 11 11 11 11 12 13 12 12 12 12 13 14 13 11 12 13 15 16 13 12 13 14 14 14 14 14
18 18 17 16 16 16 15 14 14 13 13 13 12 12 12 12 13 12 12 12 11 12 11 11 11 11 11 11 10 10 10 11 11 10 10 9 9 9 9 9 9 10 9 8 10 10 11 13 13 13 13 13 13 13 13 12 12 11 11 10 10 11 11 13 14 13 12 12 12 13 14 12 12 14 14 14 14 13 13 14 15 15 15 15 15
17 18 17 16 17 16 15 14 14 13 13 13 12 13 13 13 13 13 12 12 12 12 11 11 11 11 11 11 10 10 10 10 10 9 10 10 10 10 10 9 9 10 10 10 11 11 12 13 13 13 13 13 13 13 13 12 11 10 10 9 9 10 11 13 13 13 14 14 13 13 12 11 13 15 14 13 13 13 14 15 16 15 16 16 16
17 17 17 17 18 17 15 14 13 13 13 13 13 13 13 14 13 13 12 12 12 12 11 11 11 11 11 10 10 10 9 9 9 9 9 9 10 10 11 11 10 10 10 11 12 11 12 13 13 13 13 13 12 12 13 12 11 10 9 9 9 10 12 14 14 12 15 15 13 14 13 12 13 15 15 14 14 14 15 17 17 17 17 17 17
17 16 16 17 17 16 15 14 13 13 13 13 14 14 14 14 13 13 12 12 11 12 12 11 11 11 11 11 10 10 10 10 10 10 10 10 10 10 11 11 10 10 11 12 12 13 13 13 13 14 14 13 13 12 12 12 11 10 10 10 9 12 13 14 13 11 14 15 13 13 13 13 13 14 16 16 15 15 17 18 18 19 19 19 19
16 16 16 17 17 16 15 14 13 13 13 14 14 15 14 14 13 12 12 12 12 12 13 12 12 12 11 11 10 10 10 10 10 10 10 10 10 10 10 11 10 11 12 13 13 14 14 13 14 14 14 13 13 12 12 12 11 11 11 11 11 13 15 14 12 12 15 15 13 12 12 14 15 14 16 16 16 16 17 18 18 19 20 21 20
16 16 16 17 16 16 15 14 14 13 14 14 15 15 14 14 13 12 13 13 14 14 14 13 13 12 11 11 10 9 9 9 9 9 10 10 10 10 10 10 11 12 13 13 13 13 13 14 14 14 13 13 12 12 12 11 11 12 13 14 14 14 16 17 14 15 16 15 14 13 12 15 15 17 18 17 17 18 18 19 20 20 20 21 21
17 16 16 16 16 16 14 14 14 14 15 15 16 16 14 14 13 14 15 15 15 14 13 13 12 11 10 9 9 9 8 8 8 8 8 9 10 10 10 10 11 11 12 12 12 12 13 14 14 14 12 12 12 12 11 11 11 12 13 15 15 14 16 17 16 16 16 15 15 15 15 16 16 19 21 19 19 20 20 21 22 21 21 22 22
17 17 16 16 16 16 15 15 14 14 15 16 17 15 15 15 15 16 16 15 14 13 12 11 10 9 8 8 7 7 7 7 7 8 8 8 9 10 10 10 11 11 12 12 12 12 13 13 13 13 12 12 12 13 12 12 13 13 13 15 16 15 16 18 19 18 17 17 18 18 18 17 17 21 23 21 20 21 22 23 23 22 22 22 22
17 17 17 16 15 16 16 14 15 16 16 16 16 15 16 17 17 17 15 14 13 12 11 10 9 8 8 7 6 5 5 5 5 6 7 7 8 9 10 10 11 12 12 12 12 12 12 13 13 14 13 13 13 13 13 14 15 14 15 18 17 15 16 18 19 19 19 19 19 20 20 19 19 21 23 23 21 21 22 23 23 22 22 22 21
17 17 17 16 15 15 15 14 16 17 16 16 15 15 17 18 17 16 14 13 12 12 11 10 10 9 8 7 6 5 5 4 4 4 5 6 7 8 9 10 10 11 12 12 12 12 12 12 13 14 13 13 13 13 14 16 17 18 19 21 19 16 16 16 16 17 18 19 18 19 19 20 21 21 23 23 22 21 22 22 21 21 20 20 19
17 17 16 16 15 15 15 15 16 16 16 15 14 17 18 17 16 15 14 13 12 12 11 10 9 8 7 6 6 6 5 5 4 4 4 5 6 7 9 10 10 11 11 12 12 12 12 12 12 14 13 12 12 13 14 16 17 18 19 21 19 15 15 14 15 15 16 17 16 17 18 19 20 20 21 22 21 21 20 20 20 20 19 18 18
16 16 16 16 15 15 16 16 15 15 15 15 15 17 18 16 15 14 13 13 12 11 11 10 9 8 7 6 7 6 6 5 5 5 5 5 6 6 8 10 10 10 11 11 12 12 12 12 13 13 13 12 12 13 13 15 16 16 18 19 17 14 14 14 14 14 14 15 15 17 17 18 19 20 21 21 21 20 19 19 20 19 18 17 16
16 16 15 15 15 15 16 15 15 14 14 14 15 16 16 16 14 14 14 13 12 11 10 9 8 8 7 7 7 6 5 5 5 5 5 5 6 7 7 9 10 9 10 11 12 12 12 12 12 13 12 12 12 12 13 14 14 15 17 16 13 13 14 14 15 14 14 14 15 17 17 18 18 19 20 21 20 19 18 18 18 18 17 16 15
15 15 15 15 14 14 15 15 15 14 14 15 15 15 15 15 14 14 14 13 12 10 9 7 7 6 6 6 5 4 3 3 4 4 5 4 5 7 8 9 9 9 10 10 12 12 12 12 12 12 11 11 12 12 12 13 14 15 16 13 11 13 14 14 15 15 15 15 16 17 17 17 17 18 19 19 19 19 18 17 17 17 17 16 14
15 15 15 15 15 15 15 15 16 15 15 15 14 14 15 14 13 13 12 11 10 9 7 6 4 3 3 3 3 3 1 1 2 2 3 3 4 6 8 10 10 10 10 10 12 12 12 12 12 11 12 13 13 12 12 12 13 15 14 11 12 13 13 14 15 15 16 16 16 16 16 16 17 17 17 18 18 18 18 18 17 17 16 15 14
15 15 15 15 15 15 16 15 16 16 15 14 14 14 14 13 12 11 10 9 9 7 5 4 2 1 2 1 2 3 2 1 2 1 2 3 3 4 6 10 11 10 10 11 12 12 12 11 11 11 13 12 11 10 11 11 10 11 11 10 12 13 13 14 15 16 17 17 16 15 15 16 16 15 15 15 16 17 17 17 17 16 15 14 14
15 15 15 14 14 15 15 15 15 15 14 14 13 13 13 12 11 10 9 8 7 5 4 2 1 0 1 0 1 2 2 2 2 1 2 3 3 4 6 9 11 11 11 11 13 13 11 11 11 10 10 9 8 9 10 9 8 8 10 11 12 12 13 13 14 16 17 18 17 16 15 15 14 14 14 14 15 16 16 16 16 15 15 14 14
15 14 15 14 14 15 14 15 15 15 14 14 13 12 12 11 10 9 8 6 4 3 2 1 0 1 1 1 0 1 1 2 1 2 4 4 4 5 6 8 11 12 12 12 14 14 12 11 10 8 8 8 9 9 9 8 8 9 10 10 11 11 13 13 14 15 16 19 18 15 15 14 13 13 13 13 14 15 15 15 15 15 15 15 14
14 13 14 14 14 15 14 15 15 14 13 13 12 12 11 10 9 8 6 5 3 2 1 1 2 2 3 2 2 2 1 1 1 2 4 5 4 4 5 7 10 12 13 12 13 12 10 10 9 8 8 9 9 9 9 8 9 9 9 10 11 11 12 13 14 14 15 18 17 14 14 14 13 13 12 13 13 13 14 14 14 14 15 15 15
14 14 13 14 15 15 14 15 15 15 13 12 12 11 10 9 8 6 5 3 2 1 1 2 2 3 3 3 3 3 2 1 1 2 4 5 4 4 5 6 8 11 11 10 10 10 9 9 8 8 9 9 9 9 8 8 8 9 9 10 10 10 11 12 13 14 14 16 16 13 13 13 13 13 12 13 14 13 13 14 14 14 14 14 14
14 15 15 14 15 16 15 15 15 15 14 12 11 11 10 8 8 6 4 3 2 1 1 1 1 2 3 4 5 4 4 3 2 3 4 6 5 4 4 5 7 9 10 10 10 10 9 9 9 9 9 9 9 9 8 8 8 8 9 10 10 10 11 12 13 13 13 15 15 12 11 12 12 12 12 12 13 13 13 13 13 14 14 14 14
16 16 15 15 15 16 16 15 15 15 13 12 10 10 9 8 7 5 4 4 2 1 1 1 1 2 3 4 5 5 6 5 3 3 4 6 5 5 5 5 5 7 9 10 10 10 9 9 9 9 9 9 9 8 8 8 7 7 8 9 10 10 11 11 12 12 12 13 14 12 9 10 10 10 11 12 12 12 12 11 12 12 13 13 13
16 16 15 15 15 16 16 16 15 14 13 12 10 9 9 8 7 6 5 4 3 3 3 0 2 3 2 3 4 5 6 6 5 4 4 6 6 5 5 5 4 5 8 10 10 9 10 10 10 9 9 9 9 8 8 7 7 7 8 8 8 9 10 10 10 11 10 11 12 10 7 7 7 7 9 10 11 10 11 11 11 11 12 12 12
16 15 15 14 15 16 16 16 15 13 13 12 10 9 9 8 7 6 5 4 4 4 2 1 2 3 2 3 4 5 6 7 6 5 4 5 6 6 6 5 4 4 7 9 10 10 10 10 10 9 9 9 9 9 8 7 7 7 7 8 7 8 8 8 9 9 9 9 9 9 7 6 5 5 7 9 10 10 10 11 11 10 10 10 10
15 15 14 13 15 16 16 15 15 13 13 12 10 9 9 8 6 6 5 6 6 4 2 2 3 3 3 3 4 4 5 6 7 6 5 5 7 7 8 7 5 4 5 8 11 10 9 10 10 9 9 9 9 9 8 7 7 7 7 7 7 7 7 7 8 8 9 8 7 7 7 7 7 6 8 10 10 11 11 10 10 10 9 9 9
14 15 14 13 15 16 16 15 14 13 13 12 10 9 9 7 7 6 6 8 7 3 2 2 3 3 3 3 3 3 4 6 7 7 6 5 6 8 8 8 6 4 3 6 10 11 10 10 10 10 9 9 9 9 8 7 7 6 6 6 6 6 6 7 7 7 7 7 6 6 6 7 8 9 11 12 11 11 11 10 10 9 9 9 9
12 14 14 14 16 16 16 15 14 14 13 12 10 10 8 7 7 7 8 8 6 3 3 3 3 2 3 3 2 2 4 5 6 6 6 5 6 8 8 9 7 5 4 4 8 11 11 11 11 10 10 9 9 9 8 8 7 6 6 6 6 5 5 6 6 6 6 6 6 6 6 6 7 8 10 11 11 11 10 10 10 9 9 9 9
11 13 14 15 16 16 16 15 15 14 13 12 11 10 9 8 8 8 9 8 5 4 3 3 3 2 3 3 2 2 4 4 5 5 5 5 6 9 9 9 8 6 5 5 7 10 11 12 12 11 11 10 9 9 9 8 8 7 7 6 5 5 5 5 5 5 5 5 6 6 6 6 6 6 8 9 9 9 10 10 9 9 9 8 9
11 13 14 15 16 16 16 15 15 14 13 12 11 10 10 9 9 9 10 9 5 4 3 3 3 2 3 3 1 2 4 4 5 4 5 5 6 8 10 9 8 7 6 5 6 9 11 12 12 12 12 11 10 10 9 8 8 7 7 6 6 5 4 5 4 4 5 5 6 6 6 6 7 7 7 7 8 8 9 9 9 8 8 8 8
11 12 14 16 16 17 16 16 16 14 12 11 11 11 11 9 9 9 10 9 6 4 4 3 3 2 3 3 1 2 4 4 5 4 4 5 6 8 9 9 9 8 6 6 7 9 11 12 12 12 12 11 11 11 10 9 9 8 8 7 6 6 5 4 4 4 4 4 5 6 6 6 7 7 6 6 7 7 7 8 8 8 8 8 8
12 12 14 16 16 16 17 15 14 13 12 12 12 12 11 10 9 9 9 8 6 5 4 3 3 2 3 2 0 2 4 4 5 4 4 5 6 7 8 10 11 10 7 7 8 8 10 12 13 14 13 12 11 12 11 11 10 8 8 8 7 6 5 4 4 3 3 4 5 5 6 6 5 6 6 6 6 6 6 7 7 7 8 8 8
12 13 14 16 16 16 16 15 13 13 13 14 13 12 11 10 9 9 9 8 7 6 4 3 3 2 2 1 0 2 3 4 5 5 4 5 6 7 7 9 11 11 9 8 8 9 10 11 13 14 14 13 12 12 12 11 9 8 8 8 7 6 5 5 5 4 3 4 4 5 5 5 5 6 6 6 6 6 6 6 6 6 6 8 9
12 13 14 16 16 15 15 14 13 14 14 15 13 11 11 10 10 10 10 9 8 6 5 4 3 2 2 1 1 1 3 4 4 5 5 5 5 6 7 8 11 12 11 10 9 10 10 11 12 13 14 14 13 12 11 10 9 7 7 7 7 7 6 6 5 5 4 4 5 4 5 5 5 6 5 5 5 6 6 6 6 6 6 7 7
12 13 14 16 16 16 16 14 14 15 15 14 12 11 11 11 11 11 10 9 8 7 6 5 3 3 1 1 1 2 2 3 4 4 4 5 5 6 7 8 10 12 13 11 9 10 11 11 11 13 14 15 14 13 11 10 10 8 7 7 7 6 7 7 7 6 6 5 6 5 5 6 6 6 6 5 6 6 6 6 5 6 6 6 5
13 14 15 16 16 16 16 15 15 16 15 14 13 12 12 11 10 10 9 9 8 7 7 5 4 3 2 2 2 2 3 3 3 4 4 5 6 6 6 7 8 10 12 12 10 9 10 11 11 11 13 14 14 13 12 11 11 9 7 6 5 5 7 8 9 9 8 7 7 7 7 7 7 7 6 6 6 6 6 6 6 5 5 6 5
14 14 15 17 17 16 16 15 16 16 15 14 14 13 12 11 10 9 9 8 8 7 6 5 5 3 3 3 2 3 3 3 3 4 4 5 5 6 6 7 7 8 10 11 10 9 10 11 11 11 10 12 12 12 13 13 11 9 7 5 4 5 6 9 11 11 10 9 9 9 9 8 8 8 7 7 7 7 6 6 6 6 6 5 5
14 15 16 17 17 17 17 16 17 16 15 15 14 12 12 12 10 9 8 7 7 7 6 5 5 4 3 3 3 3 3 4 4 4 4 5 5 6 6 7 7 7 9 11 11 10 10 10 11 11 10 10 10 10 12 13 11 8 7 5 4 4 5 8 11 11 12 12 11 11 10 9 10 9 9 8 8 7 7 7 7 7 7 7 6
15 16 17 17 17 17 17 17 17 16 15 15 15 12 12 12 10 9 8 7 7 8 8 7 6 5 4 4 3 3 3 4 4 4 4 4 6 6 6 7 7 6 8 10 12 12 12 12 12 12 11 11 10 10 10 12 12 11 8 6 5 4 5 6 7 7 10 12 12 12 11 11 11 11 11 10 9 9 9 9 9 8 9 8 7
15 16 17 17 17 17 18 17 16 16 15 16 16 14 13 13 12 11 11 10 9 9 9 8 7 6 4 3 2 2 3 3 4 4 4 4 5 6 6 7 7 7 7 9 11 12 13 13 13 13 12 12 11 11 10 11 11 12 11 9 7 5 4 3 3 3 7 10 11 12 12 12 12 12 12 11 11 11 10 10 10 10 10 10 9
15 15 16 17 17 17 18 18 17 16 16 16 16 15 14 13 14 13 12 12 11 10 9 8 8 7 4 3 2 2 3 3 4 4 4 4 4 6 6 7 7 8 8 8 9 11 13 13 13 13 13 12 12 11 11 11 10 11 13 12 11 9 7 5 4 4 4 7 9 10 11 12 13 13 13 13 12 12 11 11 11 12 12 11 10
15 15 15 16 17 18 18 18 17 16 16 16 16 16 14 14 14 14 12 12 12 10 9 9 8 7 5 4 3 2 2 3 4 4 4 4 4 5 6 7 7 8 9 9 9 11 12 12 11 12 11 11 12 11 11 11 11 11 12 13 13 12 11 10 9 8 5 4 6 9 10 11 12 13 13 13 13 13 13 13 13 12 12 12 12
15 15 15 15 17 18 19 19 18 16 17 17 17 16 15 14 14 14 13 13 12 10 9 10 9 8 6 5 4 3 2 3 3 4 4 4 4 4 6 7 8 8 8 9 9 10 12 11 10 12 11 11 11 10 10 10 11 11 11 12 13 12 12 11 11 10 8 6 5 5 8 10 10 12 13 13 13 13 14 14 14 14 13 12 12
15 15 15 15 17 19 19 20 19 17 17 18 18 17 16 15 14 14 13 13 12 10 10 10 10 9 8 7 6 4 4 3 3 4 4 5 5 5 5 6 7 8 8 9 9 9 10 10 10 12 12 12 11 11 11 10 10 11 10 11 12 12 11 10 10 11 10 9 7 6 7 8 8 10 12 13 13 13 14 14 15 15 15 14 13
15 15 15 16 17 19 19 20 20 18 17 18 19 17 16 15 14 14 14 13 12 11 11 10 11 10 9 8 7 6 5 4 4 4 5 5 5 5 5 5 6 7 8 8 8 9 10 10 10 11 12 12 12 12 12 11 11 11 11 11 12 12 11 10 10 10 10 9 8 7 8 9 8 8 9 10 11 11 13 14 14 15 15 15 14
Wind_Direction
141 139 137 139 137 139 139 138 137 137 137 136 136 133 132 127 124 120 117 114 111 108 107 108 107 108 105 103 100 99 97 94 94 92 91 89 88 86 83 80 80 79 76 74 70 68 66 70 75 79 81 81 83 82 81 77 72 71 71 72 70 72 75 75 76 78 82 81 77 74 75 80 84 87 90 91 92 92 94 96 90 80 80 79 82
144 138 136 139 137 137 139 140 138 136 137 135 134 131 130 125 122 119 116 113 111 109 108 109 108 109 105 105 102 101 100 96 94 90 89 86 87 86 87 84 82 80 78 77 73 70 68 70 73 78 83 84 85 84 82 79 75 73 73 73 73 75 77 76 79 81 81 82 83 80 76 80 84 83 79 76 80 85 89 92 88 80 78 79 82
140 135 134 138 136 137 138 138 137 137 136 134 133 130 128 124 123 120 119 116 114 113 111 112 109 108 106 106 103 102 101 97 94 91 89 85 84 83 84 83 80 79 77 77 76 75 72 69 70 75 81 85 86 86 84 82 80 77 76 75 74 74 75 76 80 84 84 83 81 77 73 73 76 78 74 67 74 82 84 85 83 79 79 79 78
136 132 133 136 134 136 138 138 138 137 136 134 132 129 128 125 124 122 121 119 117 117 115 115 111 110 108 106 103 102 100 97 95 93 90 85 83 82 83 81 79 76 74 75 77 76 74 72 73 78 84 87 88 90 88 86 84 81 80 76 73 70 71 77 80 81 84 84 75 73 74 71 71 76 76 71 78 81 78 79 81 82 82 81 79
133 132 133 133 135 139 140 140 140 137 136 134 131 130 129 126 126 124 121 119 119 118 117 116 112 111 108 106 103 101 100 98 97 93 89 87 86 85 83 81 80 76 74 74 75 75 75 80 81 81 85 87 89 90 88 88 87 84 82 76 72 71 74 78 81 81 83 83 74 74 76 71 70 71 73 76 78 79 78 82 86 84 82 81 80
132 133 131 132 136 141 141 140 139 137 135 133 131 130 130 127 125 123 120 118 118 117 117 115 112 110 107 105 102 102 101 101 98 93 90 88 85 83 83 81 80 77 75 75 78 80 79 84 85 85 87 87 88 90 89 88 86 85 84 79 75 74 78 80 82 81 76 77 74 73 74 70 71 68 67 71 72 76 85 90 92 87 83 81 78
133 134 131 134 137 141 141 139 139 137 136 134 132 131 131 128 125 122 119 118 119 118 117 115 112 109 106 104 103 103 103 103 99 92 89 87 85 82 81 80 81 79 78 81 84 84 84 85 86 87 88 88 90 91 89 88 86 85 83 82 79 78 80 79 76 72 66 69 67 62 68 72 71 68 66 69 71 75 82 82 82 81 81 80 77
136 137 133 136 139 141 140 139 140 137 136 134 134 133 132 129 126 123 120 120 121 119 116 114 111 108 106 103 102 103 104 105 100 94 91 87 85 83 81 82 86 86 83 88 89 88 88 88 86 86 87 88 89 90 90 89 89 86 84 84 82 81 82 75 68 69 70 65 65 63 65 69 70 70 72 80 84 84 80 76 74 74 78 80 78
138 139 137 136 138 140 139 140 139 137 137 136 135 133 133 131 127 124 122 123 121 119 115 113 111 108 106 103 103 103 103 105 103 101 99 93 88 84 83 82 85 87 86 90 94 91 88 87 88 88 87 87 87 89 91 88 87 86 84 86 82 83 83 76 68 71 76 68 72 81 69 64 71 73 74 80 87 87 81 78 77 76 78 80 80
138 138 136 134 138 140 139 140 138 138 138 137 135 133 133 131 127 125 125 124 122 119 116 114 111 110 108 106 105 104 104 104 104 102 99 95 92 88 86 85 87 89 87 91 96 93 89 89 89 89 87 87 86 86 87 87 86 85 83 83 82 87 82 73 70 68 76 75 75 82 76 70 72 76 79 79 78 77 78 80 82 81 79 80 81
138 138 134 132 138 140 139 138 138 140 138 137 135 132 131 128 126 126 126 125 124 122 120 118 116 115 113 112 110 109 107 107 106 102 97 93 92 91 92 92 91 91 91 91 93 92 91 91 89 88 87 87 87 84 86 87 86 85 84 84 82 84 77 70 79 81 78 80 78 77 79 80 76 77 83 82 80 76 76 79 80 80 80 80 80
139 137 133 132 138 139 138 139 140 141 138 136 135 134 131 129 128 128 129 128 127 125 123 120 119 118 117 116 116 115 113 112 111 107 101 94 91 91 95 95 93 92 93 93 93 93 93 92 89 88 88 88 87 86 85 86 86 86 86 86 82 79 75 73 88 92 81 80 80 79 82 86 84 83 85 86 87 85 81 81 80 80 81 80 79
139 137 132 132 138 139 139 140 141 140 137 136 136 134 130 129 131 132 131 130 127 125 122 119 116 114 114 114 115 114 113 113 113 111 105 98 94 92 93 96 97 95 96 97 96 96 95 93 90 89 89 89 87 86 84 85 87 88 89 86 82 78 76 79 84 83 80 80 81 80 82 83 85 88 91 93 92 89 86 85 83 82 81 81 81
140 135 130 131 136 137 141 142 141 139 139 139 137 133 130 133 136 135 133 129 127 125 123 120 117 114 113 112 111 111 108 107 107 110 110 104 97 94 95 98 101 99 100 101 100 97 95 94 92 90 89 88 87 86 85 88 89 88 90 88 82 78 78 82 82 79 77 80 82 82 82 79 80 84 88 91 90 89 87 86 84 82 82 81 81
141 134 130 131 136 139 141 142 141 140 142 140 135 133 134 138 139 136 132 130 128 127 126 122 121 117 114 111 111 111 109 107 103 103 107 110 105 101 99 99 102 104 104 103 101 98 96 95 93 93 91 88 86 85 86 88 89 87 89 89 83 78 81 85 82 80 80 80 81 83 83 82 80 82 86 89 88 86 86 87 86 83 83 82 81
140 133 130 134 140 140 139 141 141 139 140 137 134 135 139 141 140 137 134 133 133 130 128 126 123 118 113 109 109 111 112 112 106 103 102 108 111 108 105 103 105 107 108 104 101 98 96 95 96 98 94 91 88 86 90 92 92 90 93 92 85 78 82 86 81 80 82 80 80 81 83 84 84 83 86 88 87 84 82 84 84 83 83 82 83
138 133 134 138 139 137 138 140 139 138 138 135 136 140 142 144 141 139 139 138 137 134 132 127 122 117 114 106 103 105 108 110 109 109 104 107 116 118 112 110 112 113 112 107 103 100 97 97 101 102 97 94 92 91 97 100 96 92 95 94 86 79 80 83 82 82 83 81 79 80 83 84 84 84 85 85 85 83 81 80 80 82 82 81 81
135 133 138 140 140 140 140 139 138 139 137 135 140 145 146 146 145 144 143 142 140 137 134 128 123 118 110 99 90 89 96 107 112 115 116 111 114 125 124 118 120 122 117 110 106 103 100 100 103 104 101 97 96 99 104 104 98 94 95 92 86 81 80 81 82 82 82 82 81 80 83 85 85 86 86 86 86 86 84 81 79 80 81 80 80
134 135 141 141 142 142 141 140 140 141 139 138 142 148 150 149 149 147 145 144 140 137 135 131 126 115 99 84 66 60 73 91 104 111 120 115 108 122 135 128 128 131 124 114 110 107 104 102 104 105 103 101 102 106 109 105 100 99 95 88 84 82 80 80 81 82 80 81 84 85 86 88 89 89 90 89 88 86 83 78 75 73 74 75 76
135 137 141 142 143 142 143 142 142 144 143 141 143 147 153 154 151 149 147 145 142 140 138 134 127 111 91 72 56 55 66 74 86 102 108 115 124 133 142 138 135 138 131 120 116 113 108 108 108 108 106 106 109 110 110 105 101 100 92 84 81 81 80 80 82 82 80 81 85 90 92 92 91 91 91 90 87 83 78 72 67 63 62 63 65
143 141 141 144 144 144 145 144 145 148 146 144 145 148 155 156 152 152 152 150 148 144 135 127 120 106 87 69 57 63 80 77 81 103 103 111 143 145 147 147 144 144 138 128 123 118 114 116 115 114 113 110 109 110 108 104 104 99 90 82 80 80 80 82 84 84 83 83 85 92 97 94 91 91 91 90 88 83 76 68 60 53 50 49 50
149 146 145 148 147 147 148 147 147 148 147 146 148 150 154 156 153 155 154 153 152 143 129 121 115 104 84 70 66 54 62 90 83 124 126 116 138 146 152 156 153 148 145 139 131 125 121 122 122 122 115 105 103 106 106 105 105 95 84 83 82 81 83 85 87 87 85 85 88 94 98 97 94 91 89 88 87 83 77 68 57 51 49 49 50
152 151 149 151 149 148 149 148 147 147 149 149 150 153 156 158 157 157 156 158 156 145 137 126 106 95 74 59 68 45 38 45 44 95 131 112 113 144 160 162 161 156 151 147 139 132 129 128 127 122 111 105 109 111 110 110 105 90 82 84 83 85 86 87 88 88 86 87 92 96 94 97 96 91 88 87 86 83 78 71 65 65 68 69 70
155 153 150 152 151 150 150 150 149 150 152 152 153 157 159 159 159 161 162 163 160 151 145 125 74 81 69 18 46 28 37 40 37 78 141 129 110 131 158 166 166 162 153 151 148 142 138 135 128 122 116 117 120 114 113 113 105 92 87 85 84 87 87 86 88 88 88 87 89 93 91 91 93 91 91 87 85 83 78 76 74 75 81 81 81
154 154 152 154 154 154 153 152 152 154 159 157 156 161 160 159 162 164 160 159 157 149 146 143 243 245 259 271 263 317 9 50 79 161 176 164 138 135 155 167 171 169 158 157 156 148 145 142 136 135 131 123 118 113 113 110 103 96 90 86 86 88 88 88 88 89 91 87 84 86 85 83 83 86 90 87 84 80 74 74 71 71 77 78 78
155 157 157 158 158 159 158 156 157 160 164 163 160 162 161 163 164 158 154 153 152 150 169 260 261 247 256 272 254 245 258 40 95 168 180 170 153 143 157 169 177 178 169 165 161 152 151 150 146 146 135 123 118 116 117 114 108 100 93 91 88 89 92 92 90 89 89 89 88 86 84 82 80 80 84 82 80 75 67 65 65 68 73 73 74
158 159 161 163 162 162 162 161 162 163 167 166 163 163 164 166 159 155 160 155 155 173 250 279 262 243 254 270 259 243 235 247 126 167 179 173 162 147 152 169 182 186 183 175 166 161 159 156 149 145 138 130 125 121 122 119 110 103 96 94 90 90 92 93 93 90 89 92 93 91 90 88 85 83 82 80 79 76 71 70 71 73 74 74 76
160 161 164 166 167 166 165 165 166 168 169 169 168 165 164 163 157 163 169 157 171 217 276 256 255 256 258 259 255 249 244 243 204 177 181 178 166 152 152 167 185 190 190 186 175 168 164 159 151 148 146 138 132 128 126 123 116 108 102 96 92 91 90 91 91 90 91 94 93 92 92 88 86 84 81 82 83 82 81 82 82 81 78 78 79
162 163 166 167 170 169 168 169 169 171 171 171 171 167 164 161 162 168 165 166 188 169 156 191 307 292 268 257 256 251 249 241 215 190 184 183 172 160 157 161 184 189 188 192 186 174 168 163 157 155 152 145 139 135 132 130 126 118 108 100 97 95 93 92 90 89 92 93 91 90 87 84 82 80 80 82 84 86 87 88 90 89 85 84 85
163 164 166 168 171 171 171 171 171 174 175 175 173 168 168 167 166 167 167 176 181 156 161 256 322 308 290 273 270 259 251 238 216 204 187 186 180 172 167 157 171 189 190 193 191 183 176 169 165 162 158 151 146 144 143 140 135 128 115 105 101 98 96 94 91 90 89 89 91 88 76 70 75 83 86 85 85 87 90 95 96 94 91 88 89
162 165 168 168 172 173 173 174 173 175 178 180 176 172 175 175 173 171 174 181 170 164 189 305 319 320 318 291 281 262 246 231 215 211 199 192 191 184 179 168 160 182 197 195 192 192 185 176 171 167 163 157 153 153 153 148 142 135 122 112 106 101 99 97 92 87 82 83 93 94 76 49 54 89 99 92 93 94 96 101 102 100 97 93 93
166 167 169 169 172 175 176 176 174 176 179 182 183 181 183 184 183 181 179 177 171 183 245 297 316 326 321 300 291 264 236 220 211 213 211 200 197 192 186 180 167 170 198 198 194 195 189 182 176 171 167 160 158 161 159 156 151 143 134 122 112 106 102 97 89 84 78 79 90 97 89 63 55 82 103 101 102 104 105 107 108 107 104 100 101
170 168 169 173 176 178 177 176 176 179 180 183 189 189 191 190 189 189 182 176 177 208 260 296 317 321 319 312 299 262 222 207 207 212 215 207 201 197 191 186 176 162 178 198 196 196 192 185 180 174 170 166 166 166 165 164 160 153 143 130 121 113 105 99 91 85 79 79 85 86 93 93 80 85 99 104 107 109 110 111 112 111 110 109 109
169 169 173 177 180 180 179 178 178 180 181 185 193 194 195 192 186 185 180 180 187 219 258 291 310 319 320 322 308 253 207 200 202 207 217 215 204 201 197 190 182 166 162 189 198 196 195 189 183 179 175 175 174 173 173 171 167 162 152 143 134 122 113 105 97 93 82 79 86 82 86 100 102 100 103 107 110 112 113 113 114 112 111 112 111
169 173 178 180 183 183 182 182 180 181 186 192 198 199 198 190 182 179 179 185 200 230 254 286 300 320 325 330 322 229 194 197 199 203 214 216 207 202 201 194 185 177 171 182 199 199 198 194 189 185 182 182 182 180 181 177 172 168 164 158 143 134 124 111 107 104 94 89 89 88 92 96 103 113 113 111 111 114 117 115 113 112 111 112 113
173 178 180 182 185 185 186 186 182 184 192 199 202 201 196 185 181 181 181 186 206 238 249 279 299 318 326 337 332 207 193 198 203 207 213 216 213 203 203 199 189 186 180 180 198 200 200 200 196 192 190 188 187 186 185 185 180 174 175 168 152 152 139 123 123 112 102 102 100 100 103 100 100 110 116 115 114 115 120 122 117 114 114 114 115
179 182 182 184 187 187 188 189 188 191 197 199 198 198 192 180 180 183 183 188 208 239 246 270 291 313 327 339 339 193 194 203 208 216 221 225 220 207 205 201 196 193 185 184 197 200 198 200 202 199 197 193 191 191 188 189 187 180 183 179 164 163 158 144 138 127 123 121 117 116 114 113 111 109 114 121 122 119 122 127 126 123 122 119 119
182 186 185 186 188 187 187 190 193 197 197 193 190 190 187 178 180 184 185 193 213 234 244 266 284 308 328 341 319 193 197 208 217 225 234 235 224 211 207 202 201 200 193 191 196 201 199 201 203 201 201 200 196 195 193 191 190 187 191 188 175 170 169 164 157 158 163 139 130 130 126 130 128 118 117 122 128 131 129 125 120 121 125 126 128
183 187 189 189 188 187 188 190 192 193 190 190 188 184 183 180 181 187 191 203 223 230 233 260 278 298 325 335 243 204 209 218 227 235 241 237 221 211 206 200 202 202 200 198 195 196 198 201 204 202 203 206 202 200 197 192 193 197 197 191 181 179 180 183 186 192 189 157 145 146 143 144 141 135 132 128 131 138 143 143 136 131 125 125 130
184 188 192 190 188 187 187 187 187 186 184 186 185 180 182 184 187 195 202 214 227 229 231 253 269 279 311 316 250 221 226 228 233 239 241 235 218 208 203 197 201 203 202 201 196 194 195 198 203 203 205 207 206 206 201 192 195 199 195 193 190 190 194 202 214 216 204 182 171 171 165 157 155 155 152 144 139 142 149 155 155 152 142 126 119
188 191 192 190 189 188 187 182 182 184 183 183 182 181 184 188 194 203 214 220 226 230 232 243 256 260 273 287 268 243 242 240 238 239 236 231 216 204 199 196 200 203 203 202 199 192 191 195 200 205 209 208 208 209 202 195 197 193 190 196 200 207 211 214 227 230 223 208 191 193 187 177 175 169 165 162 157 158 159 158 160 162 162 155 133
190 192 192 190 190 191 189 184 183 185 186 184 183 186 191 197 202 210 219 223 224 229 234 238 245 248 236 249 265 254 254 248 240 238 233 225 212 202 197 195 198 201 201 201 197 188 189 193 195 202 210 211 213 211 203 200 203 197 193 197 201 216 222 225 236 234 229 224 209 207 204 199 196 183 178 179 176 179 174 170 173 172 174 179 174
191 194 195 192 191 193 192 188 187 188 188 188 188 192 197 203 210 217 222 225 223 227 239 239 238 242 236 244 256 254 257 251 238 233 229 223 211 205 199 196 198 201 200 199 196 191 191 193 195 201 204 208 215 213 205 205 210 206 199 204 206 215 219 224 236 238 232 227 220 219 216 211 209 198 192 194 192 194 188 181 182 183 187 190 186
192 196 196 193 193 195 193 191 191 190 190 191 194 196 198 199 205 212 215 220 219 217 228 231 231 241 241 246 253 250 255 253 246 236 232 224 213 209 203 199 200 201 201 200 200 199 197 197 199 202 200 203 210 209 208 213 217 213 206 213 212 220 229 212 216 228 230 228 226 225 223 218 215 209 208 208 203 201 199 194 192 193 196 199 201
194 197 195 193 196 197 195 194 193 193 192 192 193 193 195 194 193 196 196 200 207 213 224 229 228 234 241 246 248 248 251 251 247 242 239 224 214 214 208 204 202 202 203 204 205 205 204 204 203 204 205 210 212 206 209 216 220 223 227 234 220 224 243 215 202 215 219 225 229 226 224 224 220 213 216 218 212 207 206 203 202 202 203 204 207
197 197 195 195 198 198 196 195 194 194 193 193 193 193 197 197 194 196 197 201 212 219 224 229 227 228 239 245 246 251 249 245 242 236 236 226 218 216 212 210 206 205 208 207 207 207 207 208 206 206 208 213 217 212 212 214 219 229 236 243 252 278 286 232 217 222 209 219 231 228 223 223 224 222 220 221 219 215 212 210 210 210 210 211 212
198 198 198 198 200 199 198 197 195 195 195 193 195 197 200 202 202 206 209 213 219 221 223 228 229 228 234 241 241 249 242 237 234 230 229 225 220 218 215 219 215 211 213 211 210 208 208 210 206 208 211 211 213 216 216 210 213 227 230 234 245 261 271 251 249 263 222 213 221 226 226 221 221 225 226 226 222 220 218 217 218 217 214 214 216
199 199 199 200 201 202 201 200 197 197 196 195 196 199 202 203 205 210 216 220 222 222 223 225 227 227 229 235 239 241 236 228 226 227 229 225 220 220 217 223 225 219 216 215 214 211 212 212 206 208 215 213 211 218 220 213 214 223 224 229 234 238 244 245 248 259 263 238 212 215 224 222 222 226 228 231 229 225 223 221 225 225 219 218 219
200 200 200 201 202 203 202 201 199 198 197 196 198 201 203 204 206 212 218 223 223 224 227 224 222 222 221 225 234 238 228 220 220 222 227 226 222 223 220 224 228 226 222 219 217 217 217 217 210 210 215 218 217 222 226 220 221 223 217 222 231 234 237 239 240 245 253 260 244 220 213 208 217 228 228 233 236 230 226 224 226 230 226 223 223
201 202 202 203 202 202 203 202 201 200 198 198 200 203 204 206 209 212 217 222 222 223 227 224 219 221 223 225 228 234 233 221 216 219 224 228 225 224 223 224 226 228 228 225 223 222 222 222 220 217 218 222 223 226 230 229 228 228 221 219 226 232 237 237 234 238 245 250 254 258 243 217 217 224 218 225 236 233 230 226 225 230 230 228 227
202 203 204 205 203 202 203 203 203 203 201 199 202 205 206 208 212 213 216 221 223 224 227 226 221 221 227 231 231 233 237 228 218 219 222 226 225 224 226 225 225 227 229 230 229 226 225 226 225 223 222 224 227 228 232 233 233 234 231 227 228 230 236 240 238 241 247 251 254 262 264 253 249 240 215 213 230 234 232 229 226 228 230 229 230